CRK659 ROAH-VHHH

Flight info

Callsign CRK659
Flight time N/A
Altitude 40000
Route GANJU Y576 LILRA Y573 SEDKU R595 APU A1 ELATO V522 ABBEY
Aircraft A333/H-SDE3GHIJ2J3J5M1RVWXY/LB2D1

Departure

Time 2026-04-20 13:37
Airport Naha International Airport (ROAH)

Arrival

Time N/A
Airport Hong Kong International Airport (VHHH)
Time Latitude Longitude Altitude Speed Heading
2026-04-20 13:22 26.21006 127.64975 28 ft 0 kts 87°
2026-04-20 13:26 26.21006 127.64964 31 ft 4 kts 87°
2026-04-20 13:26 26.21006 127.64940 28 ft 4 kts 97°
2026-04-20 13:26 26.21012 127.64912 30 ft 4 kts 120°
2026-04-20 13:27 26.21029 127.64889 29 ft 4 kts 150°
2026-04-20 13:27 26.21052 127.64882 28 ft 4 kts 177°
2026-04-20 13:27 26.21073 127.64882 30 ft 0 kts 178°
2026-04-20 13:29 26.21059 127.64882 30 ft 5 kts 178°
2026-04-20 13:29 26.21012 127.64884 29 ft 9 kts 178°
2026-04-20 13:29 26.20943 127.64884 27 ft 9 kts 195°
2026-04-20 13:30 26.20917 127.64827 26 ft 10 kts 262°
2026-04-20 13:30 26.20894 127.64757 24 ft 11 kts 226°
2026-04-20 13:30 26.20825 127.64734 22 ft 5 kts 177°
2026-04-20 13:30 26.20776 127.64737 22 ft 9 kts 176°
2026-04-20 13:31 26.20704 127.64742 21 ft 12 kts 176°
2026-04-20 13:31 26.20598 127.64746 23 ft 17 kts 178°
2026-04-20 13:31 26.20475 127.64752 22 ft 18 kts 178°
2026-04-20 13:31 26.20341 127.64758 21 ft 20 kts 177°
2026-04-20 13:32 26.20192 127.64766 23 ft 22 kts 177°
2026-04-20 13:32 26.20032 127.64773 23 ft 24 kts 177°
2026-04-20 13:32 26.19859 127.64781 22 ft 26 kts 178°
2026-04-20 13:32 26.19675 127.64790 23 ft 27 kts 178°
2026-04-20 13:33 26.19480 127.64799 25 ft 29 kts 177°
2026-04-20 13:33 26.19276 127.64808 22 ft 30 kts 178°
2026-04-20 13:33 26.19062 127.64819 22 ft 31 kts 177°
2026-04-20 13:33 26.18840 127.64829 22 ft 33 kts 178°
2026-04-20 13:34 26.18611 127.64839 24 ft 33 kts 178°
2026-04-20 13:34 26.18404 127.64850 25 ft 24 kts 177°
2026-04-20 13:34 26.18296 127.64855 22 ft 8 kts 181°
2026-04-20 13:34 26.18248 127.64816 21 ft 9 kts 244°
2026-04-20 13:35 26.18241 127.64735 21 ft 12 kts 267°
2026-04-20 13:35 26.18242 127.64666 19 ft 6 kts 289°
2026-04-20 13:35 26.18272 127.64651 20 ft 5 kts 350°
2026-04-20 13:35 26.18297 127.64649 21 ft 0 kts 356°
2026-04-20 13:36 26.18298 127.64649 21 ft 2 kts 356°
2026-04-20 13:36 26.18417 127.64642 23 ft 44 kts 357°
2026-04-20 13:36 26.18947 127.64616 23 ft 109 kts 358°
2026-04-20 13:36 26.19894 127.64573 160 ft 153 kts 358°
2026-04-20 13:37 26.20957 127.64515 951 ft 152 kts 354°
2026-04-20 13:37 26.22011 127.64431 1833 ft 151 kts 355°
2026-04-20 13:37 26.23064 127.64343 2415 ft 154 kts 355°
2026-04-20 13:37 26.24153 127.64273 2944 ft 157 kts 356°
2026-04-20 13:38 26.25243 127.64210 3424 ft 165 kts 351°
2026-04-20 13:38 26.26403 127.63762 3674 ft 190 kts 332°
2026-04-20 13:38 26.27615 127.62968 3980 ft 214 kts 330°
2026-04-20 13:38 26.28952 127.62098 4270 ft 235 kts 330°
2026-04-20 13:39 26.30411 127.61169 4769 ft 246 kts 330°
2026-04-20 13:39 26.31922 127.60215 5319 ft 253 kts 330°
2026-04-20 13:39 26.33427 127.59174 5916 ft 257 kts 322°
2026-04-20 13:39 26.34677 127.57733 6536 ft 262 kts 304°
2026-04-20 13:40 26.35379 127.55855 7146 ft 268 kts 281°
2026-04-20 13:40 26.35259 127.53774 7755 ft 276 kts 253°
2026-04-20 13:40 26.34357 127.51862 8368 ft 282 kts 239°
2026-04-20 13:40 26.33234 127.50053 9035 ft 285 kts 237°
2026-04-20 13:41 26.32091 127.48267 9672 ft 288 kts 237°
2026-04-20 13:41 26.30926 127.46434 10243 ft 293 kts 237°
2026-04-20 13:41 26.29728 127.44530 10506 ft 308 kts 237°